Wenatchee, WA
on Saturday, January 5, 2013

Saturday
Previous Day Next Day
Daily Summary
 ActualAverageRecord
Temperature
Mean Temperature °F 26°F  
Max Temperature 34°F 31°F 50°F (1962)
Min Temperature 22°F 21°F -8°F (2004)
Degree Days
Heating Degree Days 37 39  
Month to date heating degree days 228 196  
Since 1 July heating degree days 2891 3294  
Cooling Degree Days 0 0  
Month to date cooling degree days 0 0  
Year to date cooling degree days 0 0  
Moisture
Dew Point 23°F   
Average Humidity 87    
Maximum Humidity 93    
Minimum Humidity 78    
Precipitation
Precipitation 0.02 in 0.07 in 0.47 in (1966)
Month to date precipitation 0.02 0.36  
Year to date precipitation 0.02 0.36  
Snow
Snow 0.40 in 0.60 in in ()
Month to date snowfall 0.4 3.1  
Since 1 July snowfall 30.7 28.0  
Snow Depth 6.00 in   
Wind
Wind Speed 3 mph   
Max Wind Speed 7 mph   
Max Gust Speed mph   
Visibility 5 miles   
Events Snow   

Key: T is trace of precipitation, MM is missing value
Source: NWS Daily Summary
Time(PST)TemperatureDew PointHumidity Pressure Visibility Wind DirectionWind SpeedGust SpeedPrecipitationEvents Conditions
12:55 AM 25.0°F 19.0°F 78% 30.47 in 10.0 miles West 3.5 mph - N/A   Overcast
1:55 AM 25.0°F 19.0°F 78% 30.45 in 10.0 miles Calm Calm - N/A   Overcast
2:55 AM 25.0°F 19.0°F 78% 30.45 in 10.0 miles NW 3.5 mph - N/A   Overcast
4:55 AM 25.0°F 19.0°F 78% 30.43 in 10.0 miles NW 4.6 mph - N/A   Overcast
5:55 AM 25.0°F 19.9°F 81% 30.43 in 10.0 miles WNW 3.5 mph - N/A   Overcast
6:55 AM 25.0°F 19.0°F 78% 30.42 in 10.0 miles NNW 4.6 mph - N/A   Overcast
7:55 AM 25.0°F 19.9°F 81% 30.41 in 10.0 miles WNW 4.6 mph - N/A   Overcast
8:23 AM 24.8°F 19.4°F 80% 30.35 in 2.0 miles WNW 4.6 mph - 0.00 in Snow Light Snow
8:39 AM 24.8°F 21.2°F 86% 30.36 in 1.2 miles WNW 4.6 mph - 0.00 in Snow Light Snow
8:47 AM 24.8°F 21.2°F 86% 30.36 in 1.2 miles WNW 5.8 mph - 0.00 in Snow Light Snow
8:55 AM 25.0°F 21.0°F 85% 30.41 in 1.5 miles WNW 5.8 mph - 0.00 in Snow Light Snow
9:14 AM 24.8°F 21.2°F 86% 30.35 in 2.5 miles WNW 5.8 mph - 0.00 in Snow Light Snow
9:22 AM 24.8°F 21.2°F 86% 30.35 in 7.0 miles West 4.6 mph - 0.00 in   Overcast
9:55 AM 25.0°F 21.9°F 88% 30.41 in 9.0 miles West 5.8 mph - 0.00 in   Overcast
10:55 AM 25.0°F 21.9°F 88% 30.40 in 10.0 miles West 4.6 mph - N/A   Overcast
11:55 AM 26.1°F 21.9°F 84% 30.37 in 10.0 miles WNW 6.9 mph - N/A   Overcast
12:55 PM 27.0°F 21.9°F 81% 30.34 in 10.0 miles West 4.6 mph - N/A   Overcast
1:55 PM 26.1°F 23.0°F 88% 30.33 in 1.2 miles West 4.6 mph - 0.00 in Snow Light Snow
2:47 PM 26.6°F 24.8°F 93% 30.28 in 0.8 miles Calm Calm - 0.01 in Snow Light Snow
2:55 PM 26.1°F 24.1°F 92% 30.33 in 0.8 miles Calm Calm - 0.01 in Snow Light Snow
3:05 PM 26.6°F 24.8°F 93% 30.27 in 1.0 miles Calm Calm - 0.00 in Snow Light Snow
3:16 PM 26.6°F 24.8°F 93% 30.27 in 0.8 miles SW 3.5 mph - 0.01 in Snow Light Snow
3:28 PM 26.6°F 23.0°F 86% 30.27 in 1.2 miles Calm Calm - 0.01 in Snow Light Snow
3:46 PM 26.6°F 23.0°F 86% 30.27 in 1.8 miles Calm Calm - 0.01 in Snow Light Snow
3:55 PM 26.1°F 24.1°F 92% 30.32 in 2.0 miles Calm Calm - 0.01 in Snow Light Snow
4:14 PM 26.6°F 24.8°F 93% 30.27 in 1.5 miles Calm Calm - 0.00 in Snow Light Snow
4:39 PM 26.6°F 24.8°F 93% 30.26 in 3.0 miles Calm Calm - 0.00 in Snow Light Snow
4:55 PM 26.1°F 24.1°F 92% 30.31 in 3.0 miles Calm Calm - 0.00 in Snow Light Snow
5:55 PM 26.1°F 24.1°F 92% 30.30 in 3.0 miles Calm Calm - 0.00 in   Scattered Clouds
6:08 PM 26.6°F 23.0°F 86% 30.25 in 2.5 miles Calm Calm - N/A   Scattered Clouds
6:22 PM 26.6°F 24.8°F 93% 30.25 in 3.0 miles Calm Calm - N/A   Mostly Cloudy
6:55 PM 26.1°F 23.0°F 88% 30.29 in 1.5 miles Calm Calm - N/A   Overcast
7:08 PM 26.6°F 24.8°F 93% 30.24 in 2.5 miles Calm Calm - N/A   Overcast
7:16 PM 26.6°F 24.8°F 93% 30.24 in 4.0 miles Calm Calm - N/A   Overcast
7:55 PM 25.0°F 23.0°F 92% 30.28 in 4.0 miles Calm Calm - N/A   Overcast
8:55 PM 26.1°F 24.1°F 92% 30.26 in 4.0 miles Calm Calm - 0.00 in   Overcast
9:55 PM 26.1°F 24.1°F 92% 30.25 in 5.0 miles Calm Calm - 0.00 in   Overcast
10:25 PM 26.6°F 23.0°F 86% 30.20 in 5.0 miles Calm Calm - N/A   Overcast
10:39 PM 26.6°F 24.8°F 93% 30.20 in 5.0 miles Calm Calm - N/A   Overcast
10:55 PM 26.1°F 23.0°F 88% 30.25 in 5.0 miles Calm Calm - N/A   Overcast
11:55 PM 27.0°F 25.0°F 92% 30.22 in 4.0 miles SE 3.5 mph - N/A   Overcast
Moon Phase
Jan. 05 Jan. 11 Jan. 18 Jan. 26 Feb. 03
Sunrise:07:47 AM (PST) Moon Rise:12:45 AM (PST)1/5
Sunset:04:25 PM (PST) Moon Set:11:30 AM (PST)1/5

Copyright © 2014 The Weather Underground, Inc.